[[{"header":{"parameterUnit":"m.s-1","parameterCategory":1,"la1":30.2991,"la2":30.254,"lo1":-89.0895,"lo2":-89.0444,"dy":0.0017,"dx":0.0017,"nx":28,"ny":28,"refTime":"2024-05-21T09:00:00:Z","depth":0,"parameterNumber":2,"parameterNumberName":"U-component_of_WINDS"},"data":[0,0,0,0,0,0,0,0,0,0,0,0,0,0,0,0,0,0,0,0,0,0,0,0,0,0,0,0,0,0,0,0,0,0,0,0,0,0,0,0,0,0,0,0,0,0,0,0,0,0,0,0,0,0,0,0,0,0,-3.435,-3.435,0,-3.432,-3.432,-3.4319,-3.4226,-3.4224,-3.4222,-3.422,-3.4191,-3.4192,-3.4194,0,0,0,0,0,0,0,0,0,0,0,0,0,-3.433,-3.4331,-3.4351,-3.435,-3.435,-3.432,-3.432,-3.4319,-3.4226,-3.4224,-3.4221,-3.4219,-3.4191,-3.4192,-3.4194,0,0,0,0,0,0,0,0,0,0,0,0,0,-3.4324,-3.4331,-3.4351,-3.43,-3.4295,-3.432,-3.432,-3.4319,-3.4227,-3.4224,-3.4221,-3.4218,-3.419,-3.4192,-3.4194,-3.4267,0,0,-3.4199,-3.42,0,0,0,0,0,0,0,0,-3.4324,-3.4324,-3.4308,-3.4303,-3.4298,-3.4274,-3.4302,-3.4302,-3.4228,-3.4253,-3.422,-3.4216,-3.4221,-3.422,-3.4222,-3.4266,-3.4264,-3.4199,-3.4201,-3.4201,-3.4202,0,0,0,0,0,0,0,-3.4325,-3.4325,-3.4338,-3.4307,-3.4301,-3.4279,-3.4275,-3.4302,-3.4255,-3.425,-3.4243,-3.4241,-3.4218,-3.422,-3.422,-3.4264,-3.4199,-3.4201,-3.4202,-3.4203,-3.4366,-3.4369,0,0,0,0,0,0,-3.4332,-3.4326,-3.4339,-3.4338,-3.4303,-3.4282,-3.4277,-3.4285,-3.4254,-3.4247,-3.4244,-3.4237,-3.4219,-3.4218,-3.4219,-3.4302,-3.4201,-3.4203,-3.4204,-3.4363,-3.4367,-3.4371,0,0,0,0,0,0,-3.4332,-3.4334,-3.4341,-3.433,-3.4329,-3.4286,-3.4295,-3.4286,-3.4287,-3.4249,-3.4241,-3.4254,-3.4216,-3.4216,-3.4255,-3.4299,-3.4204,-3.4205,-3.4359,-3.4364,-3.4369,-3.4468,0,0,0,0,0,0,-3.4332,-3.4335,-3.4361,-3.4331,-3.433,-3.4377,-3.4298,-3.4287,-3.429,-3.4281,-3.4257,-3.425,-3.4214,-3.4253,-3.4257,-3.43,-3.4207,-3.4355,-3.4361,-3.4367,-3.4461,-3.4476,-3.4489,0,0,0,0,0,-3.4331,-3.4391,-3.4363,-3.4365,-3.4362,-3.438,-3.4379,-3.4336,-3.4294,-3.4321,-3.4297,-3.4251,-3.4294,-3.4258,-3.4262,-3.4306,-3.4352,-3.436,-3.4367,-3.4455,-3.4473,-3.4489,0,0,0,0,0,0,-3.4428,-3.4386,-3.4355,-3.4406,-3.4397,-3.4364,-3.4396,-3.4357,-3.436,-3.4351,-3.4298,-3.4293,-3.434,-3.4327,-3.4287,-3.4375,-3.4316,-3.4324,-3.4381,-3.4399,-3.4412,-3.4414,-3.4208,0,0,0,0,0,-3.4456,-3.4473,-3.4435,-3.4485,-3.4482,-3.444,-3.4446,-3.4414,-3.4402,-3.4398,-3.4377,-3.4368,-3.438,-3.4389,-3.4398,-3.4459,-3.4453,-3.4492,-3.4506,-3.4517,-3.4525,-3.4556,-3.4573,-3.4395,-3.4395,-3.4395,0,0,-3.4512,-3.4491,-3.4505,-3.4504,-3.4493,-3.4512,-3.4438,-3.4461,-3.4475,-3.4402,-3.4437,-3.4421,-3.4409,-3.4459,-3.448,-3.445,-3.4573,-3.4527,-3.4537,-3.4537,-3.4566,-3.4583,-3.4598,-3.44,-3.4399,-3.4398,0,0,-3.4625,-3.4611,-3.465,-3.4641,-3.4625,-3.4597,-3.4607,-3.458,-3.4566,-3.46,-3.4546,-3.4562,-3.4584,-3.4577,-3.4576,-3.4687,-3.4645,-3.4692,-3.4765,-3.4796,-3.481,-3.4822,-3.4861,-3.4875,-3.47,-3.47,-3.47,0,-3.4697,-3.4723,-3.4675,-3.4702,-3.4703,-3.4638,-3.4677,-3.4671,-3.4659,-3.4662,-3.4628,-3.4653,-3.464,-3.4688,-3.4715,-3.4717,-3.4726,-3.4693,-3.4812,-3.4823,-3.4834,-3.487,-3.4885,-3.4706,-3.4705,-3.4704,-3.4704,0,-3.4812,-3.4832,-3.4865,-3.4855,-3.4859,-3.4893,-3.4851,-3.4862,-3.483,-3.4806,-3.4842,-3.4824,-3.4828,-3.4837,-3.4806,-3.4881,-3.4862,-3.4821,-3.476,-3.4857,-3.4891,-3.4904,-3.4714,-3.4712,-3.471,-3.4709,0,0,-3.4984,-3.4947,-3.496,-3.4954,-3.4932,-3.4946,-3.4978,-3.498,-3.499,-3.4985,-3.501,-3.503,-3.4991,-3.4991,-3.4959,-3.4986,-3.5075,-3.4941,-3.494,-3.4966,-3.5155,-3.5185,-3.5202,-3.5047,-3.505,-3.5052,-3.5156,0,-3.5089,-3.5138,-3.5097,-3.5154,-3.5171,-3.5109,-3.5136,-3.5126,-3.5105,-3.5118,-3.5095,-3.5109,-3.5058,-3.5057,-3.5082,-3.5059,-3.5112,-3.5051,-3.5069,-3.507,-3.5073,-3.522,-3.5252,-3.5351,-3.5169,-3.5171,-3.5173,0,-3.5218,-3.5218,-3.5277,-3.5251,-3.5256,-3.5281,-3.528,-3.5293,-3.5281,-3.5264,-3.5264,-3.5224,-3.5253,-3.5195,-3.5234,-3.5194,-3.5199,-3.519,-3.5192,-3.5191,-3.5126,-3.5221,-3.5381,-3.5396,-3.5193,-3.5191,-3.519,0,-3.5336,-3.5351,-3.5387,-3.5384,-3.5356,-3.5374,-3.5364,-3.5348,-3.5353,-3.5353,-3.5355,-3.536,-3.5362,-3.5366,-3.5329,-3.529,-3.5374,-3.5312,-3.536,-3.5361,-3.5379,-3.5378,-3.5541,-3.5385,-3.5385,-3.5385,-3.5385,0,-3.5457,-3.5495,-3.5439,-3.5462,-3.5503,-3.5456,-3.5498,-3.5481,-3.5468,-3.5487,-3.5435,-3.5454,-3.5404,-3.5418,-3.539,-3.5427,-3.5429,-3.5416,-3.5407,-3.5419,-3.5421,-3.5421,-3.5413,-3.5389,-3.5388,-3.5387,-3.5386,0,-3.5595,-3.5559,-3.5594,-3.5564,-3.5558,-3.5589,-3.5564,-3.5584,-3.556,-3.5584,-3.5587,-3.555,-3.5564,-3.5528,-3.5537,-3.5517,-3.557,-3.5552,-3.5574,-3.5568,-3.5617,-3.5612,-3.5784,-3.5804,-3.5638,-3.5639,-3.5641,0,-3.5674,-3.5701,-3.5674,-3.5682,-3.5674,-3.5688,-3.5692,-3.5648,-3.5654,-3.5643,-3.5665,-3.5674,-3.5679,-3.5704,-3.5678,-3.5685,-3.5665,-3.5725,-3.5666,-3.5677,-3.5665,-3.5663,-3.5665,-3.5737,-3.5739,-3.5741,-3.5742,0,-3.5817,-3.5798,-3.5805,-3.5807,-3.5813,-3.5812,-3.5808,-3.5818,-3.577,-3.5781,-3.5794,-3.5798,-3.5806,-3.5816,-3.5817,-3.5807,-3.5767,-3.5761,-3.5772,-3.5784,-3.5795,-3.5789,-3.5606,-3.5757,-3.5755,-3.5754,-3.5753,-3.5753,-3.5927,-3.5948,-3.5932,-3.5942,-3.5934,-3.5932,-3.5949,-3.5927,-3.5936,-3.5939,-3.5913,-3.5931,-3.5919,-3.5916,-3.591,-3.5925,-3.5897,-3.5914,-3.5918,-3.5922,-3.593,-3.5794,-3.5925,-3.5925,-3.5924,-3.5924,-3.5923,0,-3.6067,-3.6053,-3.6063,-3.6058,-3.6067,-3.6028,-3.6021,-3.6031,-3.6048,-3.6039,-3.6045,-3.606,-3.607,-3.6046,-3.6052,-3.6068,-3.605,-3.6071,-3.6069,-3.6067,-3.5955,-3.5944,-3.6086,-3.6086,-3.6086,-3.6086,-3.6086,-3.6085,-3.614,-3.6174,-3.6154,-3.6184,-3.617,-3.6187,-3.6187,-3.6184,-3.6177,-3.6196,-3.6204,-3.6187,-3.6173,-3.6177,-3.6185,-3.6177,-3.6182,-3.6209,-3.6196,-3.6091,-3.6075,-3.606,-3.6049,-3.6211,-3.6211,-3.6306,-3.6307,-3.6308]},{"header":{"parameterUnit":"m.s-1","parameterCategory":1,"la1":30.2991,"la2":30.254,"lo1":-89.0895,"lo2":-89.0444,"dy":0.0017,"dx":0.0017,"nx":28,"ny":28,"refTime":"2024-05-21T09:00:00:Z","depth":0,"parameterNumber":3,"parameterNumberName":"V-component_of_WINDS"},"data":[0,0,0,0,0,0,0,0,0,0,0,0,0,0,0,0,0,0,0,0,0,0,0,0,0,0,0,0,0,0,0,0,0,0,0,0,0,0,0,0,0,0,0,0,0,0,0,0,0,0,0,0,0,0,0,0,0,0,2.6256,2.6256,0,2.6214,2.6214,2.6213,2.6166,2.6166,2.6165,2.6164,2.6118,2.6117,2.6116,0,0,0,0,0,0,0,0,0,0,0,0,0,2.6294,2.6294,2.6256,2.6256,2.6255,2.6214,2.6214,2.6213,2.6167,2.6166,2.6165,2.6164,2.6118,2.6117,2.6116,0,0,0,0,0,0,0,0,0,0,0,0,0,2.6267,2.6293,2.6256,2.6227,2.6224,2.6214,2.6213,2.6213,2.6167,2.6166,2.6165,2.6164,2.6118,2.6117,2.6116,2.613,0,0,2.6113,2.6113,0,0,0,0,0,0,0,0,2.6269,2.6266,2.6232,2.6229,2.6226,2.6195,2.621,2.6185,2.6167,2.6188,2.6164,2.6163,2.6144,2.6141,2.6135,2.6128,2.6126,2.6113,2.6113,2.6112,2.6112,0,0,0,0,0,0,0,2.6271,2.6267,2.6239,2.6232,2.6228,2.6215,2.621,2.6205,2.6172,2.6186,2.6183,2.6179,2.6142,2.6136,2.6133,2.6125,2.6113,2.6112,2.6112,2.6111,2.6129,2.613,0,0,0,0,0,0,2.6277,2.6269,2.6241,2.6238,2.6245,2.6216,2.621,2.6205,2.6172,2.6166,2.618,2.6177,2.6138,2.6134,2.6132,2.6146,2.6112,2.6111,2.6111,2.6128,2.6129,2.613,0,0,0,0,0,0,2.6278,2.6275,2.6242,2.6253,2.6248,2.6216,2.6211,2.6205,2.6199,2.6167,2.6161,2.618,2.6137,2.6133,2.6131,2.6143,2.6111,2.611,2.6126,2.6128,2.6129,2.6174,0,0,0,0,0,0,2.628,2.6276,2.6282,2.6253,2.6247,2.6244,2.6212,2.6205,2.6198,2.6194,2.6165,2.616,2.6136,2.6133,2.613,2.6142,2.6109,2.6125,2.6127,2.6129,2.6172,2.6177,2.6182,0,0,0,0,0,2.6281,2.6295,2.6282,2.6279,2.6254,2.6245,2.6241,2.6215,2.6199,2.6204,2.6184,2.616,2.6143,2.6133,2.613,2.6141,2.6124,2.6126,2.6129,2.6169,2.6176,2.6182,0,0,0,0,0,0,2.6324,2.6291,2.6276,2.6281,2.6266,2.6237,2.6242,2.6223,2.6211,2.6207,2.6174,2.6168,2.617,2.6155,2.6145,2.6153,2.613,2.6132,2.6162,2.6169,2.6174,2.6176,2.6109,0,0,0,0,0,2.6334,2.6331,2.6301,2.6309,2.6302,2.6274,2.6269,2.625,2.6233,2.6226,2.6205,2.6188,2.6179,2.6173,2.6163,2.617,2.6163,2.6176,2.6181,2.6186,2.6187,2.619,2.6195,2.6137,2.6137,2.6137,0,0,2.6355,2.6336,2.6336,2.6317,2.6303,2.6299,2.6269,2.6266,2.6262,2.6225,2.6222,2.6207,2.6186,2.6189,2.6189,2.6177,2.6202,2.6189,2.6193,2.6191,2.6193,2.6198,2.6203,2.6139,2.6139,2.6138,0,0,2.639,2.6377,2.6381,2.6368,2.6349,2.633,2.6331,2.6305,2.6294,2.6291,2.6263,2.6258,2.6243,2.6229,2.622,2.6252,2.623,2.625,2.6276,2.6279,2.6284,2.6288,2.6298,2.6303,2.6252,2.6252,2.6252,0,2.6418,2.6412,2.6386,2.6385,2.6377,2.6345,2.6349,2.6338,2.6315,2.631,2.6297,2.6278,2.6262,2.6261,2.6269,2.6263,2.6263,2.6252,2.6286,2.6289,2.6292,2.6302,2.6306,2.6254,2.6254,2.6254,2.6253,0,2.6447,2.6443,2.6449,2.643,2.6423,2.6424,2.6398,2.6394,2.6377,2.6359,2.6357,2.6336,2.6321,2.632,2.6302,2.6317,2.631,2.6292,2.6268,2.6301,2.6309,2.6313,2.6258,2.6257,2.6256,2.6255,0,0,2.6506,2.6473,2.6476,2.6467,2.6443,2.6439,2.644,2.6427,2.6424,2.641,2.6408,2.6397,2.6381,2.637,2.6351,2.6354,2.638,2.6335,2.6334,2.6343,2.6395,2.6407,2.6412,2.6366,2.6367,2.6367,2.6396,0,2.6536,2.6535,2.6513,2.6518,2.6514,2.6484,2.6485,2.647,2.6454,2.6448,2.6429,2.6422,2.6401,2.6395,2.6396,2.6377,2.639,2.6374,2.6363,2.6363,2.6368,2.6417,2.643,2.6458,2.6399,2.64,2.64,0,2.6571,2.656,2.6566,2.6543,2.654,2.6541,2.6527,2.6522,2.6505,2.6493,2.6483,2.6462,2.6459,2.6438,2.6435,2.6425,2.6419,2.6409,2.6409,2.6406,2.6383,2.6414,2.6467,2.647,2.6405,2.6405,2.6405,0,2.6612,2.66,2.6601,2.6595,2.6568,2.6569,2.6558,2.654,2.6534,2.6522,2.6517,2.6505,2.6498,2.6489,2.6464,2.6451,2.6463,2.644,2.6452,2.6452,2.6454,2.6454,2.6506,2.6453,2.6453,2.6453,2.6453,0,2.6648,2.6652,2.662,2.6621,2.6624,2.6598,2.6603,2.6588,2.6573,2.657,2.6544,2.6541,2.651,2.6504,2.6485,2.6484,2.6481,2.6471,2.6465,2.6472,2.6473,2.6467,2.6464,2.6454,2.6454,2.6453,2.6453,0,2.6694,2.6673,2.6672,2.6648,2.6642,2.6646,2.6625,2.6624,2.6608,2.6604,2.6602,2.6575,2.6567,2.6542,2.6527,2.6514,2.6518,2.6509,2.6525,2.6521,2.6534,2.6533,2.6582,2.6587,2.6533,2.6533,2.6534,0,2.6717,2.672,2.6697,2.6694,2.6684,2.6679,2.6673,2.6648,2.6642,2.6624,2.6625,2.6615,2.6606,2.6593,2.6572,2.656,2.655,2.6568,2.6547,2.6555,2.6549,2.6548,2.6548,2.6572,2.6572,2.6573,2.6573,0,2.6761,2.675,2.6743,2.6733,2.6727,2.6717,2.6706,2.6705,2.6676,2.6672,2.6664,2.6656,2.6642,2.6632,2.6617,2.6604,2.6584,2.658,2.6582,2.6589,2.6597,2.6592,2.6535,2.6579,2.6578,2.6578,2.6578,2.6577,2.6795,2.6796,2.678,2.6774,2.6763,2.6753,2.6752,2.6736,2.6729,2.6716,2.6701,2.6695,2.6678,2.6656,2.6646,2.6639,2.6628,2.6631,2.6632,2.6633,2.6636,2.66,2.6637,2.6636,2.6636,2.6636,2.6636,0,2.6836,2.6825,2.6819,2.6805,2.68,2.6783,2.677,2.6766,2.6761,2.6748,2.674,2.6731,2.6721,2.67,2.6688,2.6687,2.6678,2.6685,2.6684,2.6681,2.6647,2.6646,2.6693,2.6693,2.6693,2.6693,2.6693,2.6693,2.6857,2.6858,2.6846,2.6842,2.683,2.6825,2.6819,2.6809,2.6799,2.679,2.6783,2.6769,2.6753,2.674,2.673,2.6724,2.672,2.6731,2.6722,2.6689,2.6684,2.6678,2.6677,2.6731,2.6731,2.6756,2.6757,2.6757]}]]